This demonstration page uses our WeatherBlox Daily Observations layout. Learn more.

Left ArrowRight Arrow

Hourly Observations for May 31, 2020

Temp ( °F °C ) Dew Point ( °F °C ) Humidity (%) Winds ( mph kmh ) Pressure ( in mb ) Visibility ( mi km ) Precip ( " mm )
12:53 am 00:53 Cloudy 61 16.1 59 15 93 93 WNW 5 7 29.94 1014 10 16 0.00 0.00
1:53 am 01:53 Cloudy 61 16.1 58 14.4 90 90 N 3 6 29.93 1014 10 16 0.00 0.00
2:53 am 02:53 Cloudy 61 16.1 58 14.4 90 90 Calm 29.93 1013 10 16 0.00 0.00
3:53 am 03:53 Clear 59 15 57 13.9 93 93 Calm 29.93 1014 10 16 0.00 0.00
4:53 am 04:53 Clear 58 14.4 57 13.9 97 97 NW 3 6 29.93 1014 10 16 0.00 0.00
5:53 am 05:53 Sunny 58 14.4 56 13.3 93 93 NW 3 6 29.93 1014 10 16 0.00 0.00
6:53 am 06:53 Mostly Cloudy 59 15 56 13.3 90 90 Calm 29.96 1015 10 16 0.00 0.00
7:53 am 07:53 Cloudy 61 16.1 56 13.3 84 84 NW 5 7 29.96 1015 10 16 0.00 0.00
8:53 am 08:53 Sunny 66 18.9 56 13.3 70 70 N 7 11 29.96 1014 10 16 0.00 0.00
9:53 am 09:53 Sunny 69 20.6 56 13.3 63 63 N 6 9 29.95 1014 10 16 0.00 0.00
10:53 am 10:53 Sunny 72 22.2 54 12.2 53 53 NNW 8 13 29.93 1014 10 16 0.00 0.00
11:53 am 11:53 Sunny 75 23.9 54 12.2 48 48 Calm 29.92 1013 10 16 0.00 0.00
12:53 pm 12:53 Sunny 77 25 52 11.1 42 42 WNW 9 15 29.91 1013 10 16 0.00 0.00
1:53 pm 13:53 Sunny 78 25.6 51 10.6 39 39 WSW 7 11 29.89 1012 10 16 0.00 0.00
2:53 pm 14:53 Sunny 78 25.6 52 11.1 40 40 SSW 6 9 29.87 1012 10 16 0.00 0.00
5:53 pm 17:53 Mostly Sunny 78 25.6 52 11.1 40 40 S 7 11 29.85 1011 10 16 0.00 0.00
6:53 pm 18:53 Sunny 77 25 53 11.7 43 43 S 10 17 29.85 1011 10 16 0.00 0.00
7:53 pm 19:53 Sunny 76 24.4 54 12.2 47 47 S 9 15 29.86 1011 10 16 0.00 0.00
8:53 pm 20:53 Clear 72 22.2 56 13.3 57 57 SSE 6 9 29.86 1011 10 16 0.00 0.00
9:53 pm 21:53 Clear 71 21.7 55 12.8 57 57 ESE 3 6 29.88 1012 10 16 0.00 0.00
10:53 pm 22:53 Clear 70 21.1 56 13.3 61 61 undefined N/A 29.88 1012 10 16 0.00 0.00
11:53 pm 23:53 Clear 67 19.4 57 13.9 71 71 Calm 29.88 1012 10 16 0.00 0.00

Powered by AerisWeather